Regional Weather Roundup
Issued by NWS

Home | Current Version | Previous Version | Graphics & Text | Print | Product List | Glossary Off
Versions: 1 2 3 4 5 6 7 8 9 10 11 12 13 14 15 16 17 18 19 20 21 22 23 24 25 26 27 28 29 30 31 32 33 34 35 36 37 38 39 40 41 42 43 44 45 46 47 48 49 50

000
ASUS43 KTOP 220459
RWRKS

WEATHER ROUNDUP FOR KANSAS
NATIONAL WEATHER SERVICE GOODLAND KS
1200 AM CDT FRI AUG 22 2014

NOTE:  "FAIR" INDICATES FEW OR NO CLOUDS BELOW 12,000 FEET WITH NO
SIGNIFICANT WEATHER AND/OR OBSTRUCTIONS TO VISIBILITY.

KSZ001>006-013>018-027>032-041>047-220600-
NORTHWEST KANSAS

CITY           SKY/WX    TMP DP  RH WIND       PRES   REMARKS
GOODLAND       PTCLDY    69  55  60 CALM      30.01R
HAYS           CLEAR     81  64  57 SE10      29.89S
HILL CITY      CLEAR     76  68  76 E5        29.90R
RUSSELL        PTCLDY    86  66  51 SE10      29.89R
$$

KSZ061>065-074>080-084>089-220600-
SOUTHWEST KANSAS

CITY           SKY/WX    TMP DP  RH WIND       PRES   REMARKS
DODGE CITY     CLOUDY    81  63  54 SW6       29.93R
ELKHART          N/A     73  59  61 S5          N/A
GARDEN CITY    MOCLDY    78  61  55 SW7       29.95R
GREAT BEND     CLEAR     82  64  54 S13       29.89R
LIBERAL        PTCLDY    79  59  50 CALM      29.97R
$$

KSZ066>073-081>083-090>101-220600-
SOUTHEAST KANSAS

CITY           SKY/WX    TMP DP  RH WIND       PRES   REMARKS
CHANUTE        CLEAR     82  70  66 S15       29.94F
COFFEYVILLE    CLEAR     82  72  71 S13       29.94F
HUTCHINSON     CLEAR     85  70  60 S16       29.91R
NEWTON         CLEAR     82  66  57 S16G23    29.96R
PARSONS        CLEAR     81  71  71 S8        29.96F
WICHITA INTL   PTCLDY    85  70  60 S20       29.91R
WICHITA JABRA  CLEAR     84  70  62 S16G24    29.92R
WINFIELD       CLEAR     83  71  67 S13       29.94S
$$

KSZ007>012-019>026-033>040-048>060-102>105-220600-
NORTHEAST KANSAS

CITY           SKY/WX    TMP DP  RH WIND       PRES   REMARKS
CONCORDIA      LGT RAIN  72  68  87 S13       29.89F
EMPORIA        CLEAR     82  73  74 S16       29.93R
LAWRENCE       CLEAR     84  72  67 S12       29.91R
MANHATTAN      MOCLDY    87  68  52 SW10      29.89R
OLATHE IND     CLEAR     83  71  67 S13       29.94R
OLATHE EXE     CLEAR     81  71  71 S10       29.93R
SALINA         CLOUDY    89  68  49 E12G20    29.92R
TOPEKA BILLARD PTCLDY    86  74  67 S13G22    29.90R
TOPEKA FORBES  CLEAR     84  72  67 S14       29.91R
$$



USA.gov is the U.S. government's official web portal to all federal, state and local government web resources and services.